TimeIST,TemperatureF,Dew PointF,Humidity,Sea Level PressureIn,VisibilityMPH,Wind Direction,Wind SpeedMPH,Gust SpeedMPH,PrecipitationIn,Events,Conditions,WindDirDegrees,DateUTC
12:10 AM,71.6,64.4,78,29.83,3.1,NW,4.6,-,N/A,,Haze,310,2012-11-14 18:40:00
12:40 AM,71.6,62.6,73,29.83,2.8,Calm,Calm,-,N/A,,Haze,0,2012-11-14 19:10:00
1:10 AM,71.6,62.6,73,29.83,2.8,Calm,Calm,-,N/A,,Haze,0,2012-11-14 19:40:00
1:40 AM,69.8,62.6,78,29.83,2.8,Calm,Calm,-,N/A,,Haze,0,2012-11-14 20:10:00
2:10 AM,69.8,62.6,78,29.80,2.8,Calm,Calm,-,N/A,,Haze,0,2012-11-14 20:40:00
2:30 AM,71,63,70,29.83,2,Calm,Calm,,,,,,2012-11-14 21:00:00
2:40 AM,69.8,62.6,78,29.80,2.8,Calm,Calm,-,N/A,,Haze,0,2012-11-14 21:10:00
3:10 AM,69.8,62.6,78,29.80,2.8,Calm,Calm,-,N/A,,Haze,0,2012-11-14 21:40:00
3:40 AM,69.8,62.6,78,29.80,-9999.0,Calm,Calm,-,N/A,,Haze,0,2012-11-14 22:10:00
4:10 AM,69.8,62.6,78,29.80,-9999.0,Calm,Calm,-,N/A,,Haze,0,2012-11-14 22:40:00
4:40 AM,69.8,62.6,78,29.80,2.2,Calm,Calm,-,N/A,,Haze,0,2012-11-14 23:10:00
5:10 AM,68.0,62.6,83,29.80,2.2,WSW,3.5,-,N/A,,Haze,240,2012-11-14 23:40:00
5:30 AM,69,62,74,29.84,2,Calm,Calm,,,,Haze,,2012-11-15 00:00:00
6:10 AM,68.0,62.6,83,29.83,1.2,WSW,3.5,-,N/A,,Partly Cloudy,240,2012-11-15 00:40:00
6:40 AM,68.0,62.6,83,29.83,1.2,SW,3.5,-,N/A,,Partly Cloudy,230,2012-11-15 01:10:00
7:10 AM,69.8,64.4,83,29.86,1.2,Calm,Calm,-,N/A,,Partly Cloudy,0,2012-11-15 01:40:00
7:40 AM,71.6,64.4,78,29.86,1.6,Calm,Calm,-,N/A,,Partly Cloudy,0,2012-11-15 02:10:00
8:10 AM,75.2,64.4,69,29.86,1.6,NW,3.5,-,N/A,,Mist,320,2012-11-15 02:40:00
8:30 AM,77,64,55,29.91,2,NNW,2.3,,,,Haze,340,2012-11-15 03:00:00
8:40 AM,78.8,64.4,61,29.89,1.9,NNW,5.8,-,N/A,,Haze,340,2012-11-15 03:10:00
9:10 AM,80.6,64.4,58,29.89,2.5,North,8.1,-,N/A,,Haze,10,2012-11-15 03:40:00
10:10 AM,82.4,66.2,58,29.89,3.1,North,11.5,-,N/A,,Haze,360,2012-11-15 04:40:00
10:40 AM,82.4,66.2,58,29.89,3.7,North,11.5,-,N/A,,Partly Cloudy,10,2012-11-15 05:10:00
11:10 AM,84.2,66.2,55,29.86,3.7,NNE,15.0,-,N/A,,Partly Cloudy,20,2012-11-15 05:40:00
11:30 AM,85,67,44,29.89,6,NNE,9.2,,,,Partly Cloudy,20,2012-11-15 06:00:00
11:40 AM,84.2,66.2,55,29.86,3.7,NNE,17.3,-,N/A,,Scattered Clouds,20,2012-11-15 06:10:00
12:10 PM,84.2,66.2,55,29.86,3.7,NNW,11.5,23.0,N/A,,Scattered Clouds,330,2012-11-15 06:40:00
12:40 PM,84.2,66.2,55,29.83,3.7,North,11.5,23.0,N/A,,Scattered Clouds,10,2012-11-15 07:10:00
1:10 PM,84.2,66.2,55,29.83,3.7,North,11.5,23.0,N/A,,Scattered Clouds,10,2012-11-15 07:40:00
1:40 PM,84.2,66.2,55,29.80,3.7,NNE,11.5,23.0,N/A,,Scattered Clouds,20,2012-11-15 08:10:00
2:10 PM,84.2,66.2,55,29.80,3.7,NNE,11.5,23.0,N/A,,Scattered Clouds,20,2012-11-15 08:40:00
2:30 PM,85,67,46,29.83,6,North,9.2,,,,Partly Cloudy,0,2012-11-15 09:00:00
2:40 PM,84.2,68.0,58,29.80,3.7,North,12.7,25.3,N/A,,Scattered Clouds,10,2012-11-15 09:10:00
3:10 PM,84.2,66.2,55,29.80,4.3,NNE,11.5,23.0,N/A,,Scattered Clouds,20,2012-11-15 09:40:00
3:40 PM,84.2,66.2,55,29.80,4.3,NNE,13.8,25.3,N/A,,Scattered Clouds,30,2012-11-15 10:10:00
4:10 PM,82.4,66.2,58,29.80,4.3,NNE,10.4,-,N/A,,Scattered Clouds,30,2012-11-15 10:40:00
4:40 PM,82.4,66.2,58,29.80,4.3,West,10.4,-,N/A,,Scattered Clouds,270,2012-11-15 11:10:00
5:10 PM,80.6,66.2,61,29.80,3.7,SE,9.2,-,N/A,,Partly Cloudy,130,2012-11-15 11:40:00
5:30 PM,81,67,53,29.85,6,NNE,5.8,,,,Scattered Clouds,20,2012-11-15 12:00:00
5:40 PM,80.6,66.2,61,29.83,3.7,NNE,9.2,-,N/A,,Partly Cloudy,20,2012-11-15 12:10:00
6:10 PM,78.8,66.2,65,29.83,3.7,North,8.1,-,N/A,,Partly Cloudy,10,2012-11-15 12:40:00
6:40 PM,78.8,66.2,65,29.86,3.7,North,4.6,-,N/A,,Partly Cloudy,10,2012-11-15 13:10:00
7:10 PM,78.8,66.2,65,29.86,3.7,NNE,6.9,-,N/A,,Partly Cloudy,20,2012-11-15 13:40:00
7:40 PM,78.8,66.2,65,29.86,3.7,North,4.6,-,N/A,,Partly Cloudy,10,2012-11-15 14:10:00
8:10 PM,77.0,66.2,69,29.89,3.7,NNE,6.9,-,N/A,,Partly Cloudy,20,2012-11-15 14:40:00
8:30 PM,78,68,63,29.92,2,NNE,3.5,,,,Clear,20,2012-11-15 15:00:00
8:40 PM,77.0,66.2,69,29.89,3.1,NNE,4.6,-,N/A,,Haze,30,2012-11-15 15:10:00
9:10 PM,77.0,66.2,69,29.89,3.1,North,5.8,-,N/A,,Haze,360,2012-11-15 15:40:00
9:40 PM,75.2,68.0,78,29.92,3.1,Calm,Calm,-,N/A,,Haze,0,2012-11-15 16:10:00
10:10 PM,75.2,68.0,78,29.89,3.1,Calm,Calm,-,N/A,,Haze,0,2012-11-15 16:40:00
10:40 PM,73.4,66.2,78,29.89,2.5,Calm,Calm,-,N/A,,Haze,0,2012-11-15 17:10:00
11:10 PM,73.4,66.2,78,29.89,2.5,NW,2.3,-,N/A,,Haze,320,2012-11-15 17:40:00
11:40 PM,73.4,66.2,78,29.89,2.5,WNW,3.5,-,N/A,,Haze,290,2012-11-15 18:10:00